This is the latest recevied weather packets stored in our database for station/object KD7CIH. If no packets are shown the sender has not sent any weather packets the latest 10 day(s).
| Time | Temp. | Humidity | Pressure | Rain* | Wind** | Luminosity | Snow |
|---|---|---|---|---|---|---|---|
| 1788106146 | 14.44° C | 77% | 1015.9 hPa | 0 mm | - | - | - |
| 1788105842 | 14.44° C | 77% | 1015.8 hPa | 0 mm | - | - | - |
| 1788105538 | 14.44° C | 77% | 1015.8 hPa | 0 mm | - | - | - |
| 1788105230 | 14.44° C | 77% | 1015.9 hPa | 0 mm | - | - | - |
| 1788105051 | 14.44° C | 74% | 1016 hPa | 0 mm | - | - | - |
| 1788104619 | 14.44° C | 74% | 1015.9 hPa | 0 mm | - | - | - |
| 1788104314 | 14.44° C | 73% | 1016.1 hPa | 0 mm | - | - | - |
| 1788104014 | 14.44° C | 73% | 1016.5 hPa | 0 mm | - | - | - |
| 1788103714 | 13.89° C | 77% | 1016.4 hPa | 0 mm | - | - | - |
| 1788103416 | 13.33° C | 81% | 1016.3 hPa | 0 mm | - | - | - |
| 1788103114 | 13.33° C | 81% | 1016.1 hPa | 0 mm | - | - | - |
| 1788102816 | 13.33° C | 80% | 1016.4 hPa | 0 mm | - | - | - |
| 1788102515 | 13.33° C | 80% | 1016.4 hPa | 0 mm | - | - | - |
| 1788102216 | 13.33° C | 79% | 1016.1 hPa | 0 mm | - | - | - |
| 1788101914 | 13.33° C | 80% | 1016 hPa | 0 mm | - | - | - |
| 1788101618 | 13.33° C | 79% | 1015.9 hPa | 0 mm | - | - | - |
| 1788101315 | 13.89° C | 79% | 1015.9 hPa | 0 mm | - | - | - |
| 1788101017 | 13.89° C | 78% | 1016 hPa | 0 mm | - | - | - |
| 1788100714 | 13.89° C | 76% | 1015.9 hPa | 0 mm | - | - | - |
| 1788100414 | 13.89° C | 75% | 1016 hPa | 0 mm | - | - | - |
| 1788100114 | 13.89° C | 76% | 1015.9 hPa | 0 mm | - | - | - |
| 1788099943 | 13.89° C | 76% | 1015.9 hPa | 0 mm | - | - | - |
| 1788099514 | 13.89° C | 75% | 1016.1 hPa | 0 mm | - | - | - |
| 1788099212 | 13.33° C | 76% | 1016.1 hPa | 0 mm | - | - | - |
| 1788098906 | 13.33° C | 76% | 1016 hPa | 0 mm | - | - | - |
* Rain latest hour (hover to see other rain measurements)
** Current wind speed in m/s (hover to see current wind gust speed)